Location: Kott?ru
(16.6209°N, 80.6208°E)
Time: 00:52:03
(UTC+00:00)

SO-50 - Visible Passes

Search period start: 04 June 2023 00:00
Search period end: 14 June 2023 00:00
Orbit: 588 x 687 km, 64.6° (Epoch: 03 June)

Date Brightness Start Highest point End Pass type
(mag) Time Alt. Az. Time Alt. Az. Time Alt. Az.
04 Jun ? 21:57:52 37° SE 21:58:30 39° ESE 22:03:01 10° NE visible
04 Jun ? 23:36:26 10° W 23:38:50 14° WNW 23:41:16 10° NNW visible
05 Jun ? 22:21:08 61° WSW 22:21:43 68° WNW 22:26:34 10° NNE visible
06 Jun ? 21:06:47 18° E 21:06:47 18° E 21:08:40 10° ENE visible
06 Jun ? 22:44:20 23° WNW 22:45:06 24° WNW 22:48:59 10° N visible
07 Jun ? 21:29:54 37° NE 21:29:54 37° NE 21:32:56 10° NNE visible
08 Jun ? 21:52:56 32° NNW 21:52:56 32° NNW 21:55:59 10° N visible
09 Jun ? 20:38:22 13° NE 20:38:22 13° NE 20:38:58 10° NE visible
09 Jun ? 22:15:54 14° NW 22:15:54 14° NW 22:17:38 10° NNW visible
10 Jun ? 21:01:17 19° NNE 21:01:17 19° NNE 21:02:37 10° NNE visible
11 Jun ? 21:24:07 15° NNW 21:24:07 15° NNW 21:25:08 10° N visible
